Change the Weather History Date:

Tuesday, June 19, 2012

  Actual Average Record
Temperature  
Mean Temperature 85 °F 75 °F  
Max Temperature 97 °F 89 °F 105 °F (2011)
Min Temperature 72 °F 62 °F 55 °F (1999)
Degree Days  
Heating Degree Days 0 0  
Month to date heating degree days 0 6  
Since 1 June heating degree days 0 6  
Since 1 July heating degree days 3791 4455  
Cooling Degree Days 20 10  
Month to date cooling degree days 234 150  
Year to date cooling degree days 499 258  
Since 1 June cooling degree days 234 150  
Growing Degree Days 34 (Base 50)    
Moisture  
Dew Point 61 °F    
Average Humidity 48    
Maximum Humidity 68    
Minimum Humidity 28    
Precipitation  
Precipitation 0.00 in 0.09 in 0.65 in (2003)
Month to date precipitation 2.26 2.15  
Year to date precipitation 5.92 8.40  
Snow  
Snow 0.00 in - - ()
Month to date snowfall 0.0  
Since 1 June snowfall 0.0  
Since 1 July snowfall 9.1  
Snow Depth 0.00 in    
Sea Level Pressure  
Sea Level Pressure 29.48 in    
Wind  
Wind Speed 24 mph (South)    
Max Wind Speed 33 mph    
Max Gust Speed 44 mph    
Visibility 10 miles    
Events      
T = Trace of Precipitation, MM = Missing Value Source: NWS Daily Summary

Daily Weather History Graph

Daily Weather History Graph

Search for Another Location

Airport or City:

Trip Planner

Search our weather history database for the weather conditions in past years. The results will help you decide how hot, cold, wet, or windy it might be!

Date:

Astronomy

Jun. 19, 2012 Rise Set
Actual Time 6:27 AM CDT 9:07 PM CDT
Civil Twilight 5:56 AM CDT 9:38 PM CDT
Nautical Twilight 5:18 AM CDT 10:16 PM CDT
Astronomical Twilight 4:35 AM CDT 10:59 PM CDT
Moon 6:32 AM CDT (6/19) 9:14 PM CDT (6/19)
Length of Visible Light 15h 41m
Length of Day
14h 40m
New Moon, 0% of the Moon is Illuminated
Jun 19
New Moon
Jun 26
First Quarter
Jul 3
Full
Jul 10
Last Quarter
Jul 18
New

Hourly Weather History & Observations

Time (CDT) Temp. Heat Index Dew Point Humidity Pressure Visibility Wind Dir Wind Speed Gust Speed Precip Events Conditions
12:53 AM 80.1 °F 81.5 °F 63.0 °F 56% 29.49 in 10.0 mi South 24.2 mph 39.1 mph N/A   Clear
1:53 AM 78.1 °F - 63.0 °F 60% 29.48 in 10.0 mi South 23.0 mph 36.8 mph N/A   Clear
2:53 AM 75.9 °F - 63.0 °F 64% 29.46 in 10.0 mi South 18.4 mph 32.2 mph N/A   Clear
3:53 AM 75.0 °F - 63.0 °F 66% 29.46 in 10.0 mi South 20.7 mph 28.8 mph N/A   Clear
4:53 AM 73.0 °F - 63.0 °F 71% 29.46 in 10.0 mi South 20.7 mph 27.6 mph N/A   Clear
5:53 AM 73.0 °F - 62.1 °F 68% 29.46 in 10.0 mi South 18.4 mph - N/A   Clear
6:53 AM 72.0 °F - 61.0 °F 68% 29.48 in 10.0 mi South 17.3 mph 24.2 mph N/A   Clear
7:53 AM 75.0 °F - 61.0 °F 62% 29.49 in 10.0 mi South 20.7 mph 26.5 mph N/A   Clear
8:53 AM 79.0 °F - 61.0 °F 54% 29.49 in 10.0 mi South 23.0 mph 35.7 mph N/A   Clear
9:53 AM 82.0 °F 82.7 °F 61.0 °F 49% 29.49 in 10.0 mi South 28.8 mph 38.0 mph N/A   Clear
10:53 AM 86.0 °F 86.1 °F 61.0 °F 43% 29.48 in 10.0 mi South 26.5 mph 35.7 mph N/A   Clear
11:53 AM 89.1 °F 89.0 °F 61.0 °F 39% 29.49 in 10.0 mi South 25.3 mph 34.5 mph N/A   Clear
12:53 PM 91.9 °F 91.5 °F 60.1 °F 34% 29.49 in 10.0 mi South 26.5 mph 34.5 mph N/A   Clear
1:53 PM 93.9 °F 94.0 °F 61.0 °F 33% 29.48 in 10.0 mi South 28.8 mph 38.0 mph N/A   Clear
2:53 PM 95.0 °F 94.0 °F 57.9 °F 29% 29.47 in 10.0 mi South 25.3 mph 38.0 mph N/A   Clear
3:53 PM 96.1 °F 95.6 °F 59.0 °F 29% 29.46 in 10.0 mi South 28.8 mph 40.3 mph N/A   Clear
4:53 PM 96.1 °F 95.6 °F 59.0 °F 29% 29.45 in 10.0 mi South 29.9 mph 40.3 mph N/A   Clear
5:53 PM 96.1 °F 96.0 °F 60.1 °F 30% 29.45 in 10.0 mi South 28.8 mph 42.6 mph N/A   Clear
6:53 PM 93.9 °F 93.2 °F 59.0 °F 31% 29.46 in 10.0 mi South 25.3 mph 41.4 mph N/A   Clear
7:53 PM 91.9 °F 91.8 °F 61.0 °F 35% 29.46 in 10.0 mi South 21.9 mph 35.7 mph N/A   Clear
8:53 PM 88.0 °F 88.7 °F 63.0 °F 43% 29.47 in 10.0 mi South 21.9 mph 31.1 mph N/A   Clear
9:53 PM 84.0 °F 85.4 °F 64.0 °F 51% 29.50 in 10.0 mi SSE 23.0 mph 35.7 mph N/A   Clear
10:53 PM 82.0 °F 83.1 °F 63.0 °F 52% 29.53 in 10.0 mi South 26.5 mph 35.7 mph N/A   Clear
11:53 PM 80.1 °F 81.2 °F 62.1 °F 54% 29.53 in 10.0 mi South 24.2 mph 33.4 mph N/A   Clear